{"data":{"norad_id":65176,"epoch":"2026-09-20T14:10:01.424928Z","epoch_age_seconds":113056,"freshness":"FRESH","line1":"1 65176U 25175C   26263.59029427  .00017635  00000+0  54716-3 0  9999","line2":"2 65176  97.2831 132.5227 0002702  85.3934 274.7617 15.33451276 62146","mean_motion":15.33451276,"eccentricity":0.0002702,"inclination_deg":97.2831,"raan_deg":132.5227,"arg_perigee_deg":85.3934,"mean_anomaly_deg":274.7617,"bstar":0.00054716,"rev_number":6214,"period_min":93.905820324219,"perigee_km":463.67534424363,"apogee_km":467.37365891909,"semimajor_km":6843.6615015814,"source":"CELESTRAK","updated_at":"2026-09-21T09:00:35.527648Z"}}